This demonstration page uses our WeatherBlox Daily Observations layout. Learn more.

38.89511, -77.03637

Hourly Observations for January 24, 2016

Temp ( °F °C ) Dew Point ( °F °C ) Humidity (%) Winds ( mph kmh ) Pressure ( in mb ) Visibility ( mi km ) Precip ( " mm )
12:30 am 00:30 Cloudy 30 -1 21 -6 69 69 NNW 10 17 29.83 1010 9 14.48406 0 0
12:52 am 00:52 Cloudy 30 -1.1 21 -6.1 69 69 NNW 14 22 29.84 1011 10 16.0934 0 0.0254
1:52 am 01:52 Cloudy 30 -1.1 18 -7.8 61 61 NNW 12 19 29.86 1011 10 16.0934 0 0
2:52 am 02:52 Mostly Cloudy 28 -2.2 14 -10 56 56 NNW 13 20 29.9 1012 10 16.0934 0 0
3:52 am 03:52 Mostly Clear 25 -3.9 12 -11.1 58 58 NNW 12 19 29.92 1013 10 16.0934 0 0
4:52 am 04:52 Clear 23 -5 12 -11.1 63 63 NNW 14 22 29.94 1014 10 16.0934 0 0
5:52 am 05:52 Clear 23 -5 10 -12.2 57 57 NNW 14 22 29.98 1015 10 16.0934 0 0
6:52 am 06:52 Clear 22 -5.6 10 -12.2 60 60 NNW 10 17 30.01 1016 10 16.0934 0 0
7:52 am 07:52 Sunny 24 -4.4 9 -12.8 52 52 VRB 6 9 30.04 1017 10 16.0934 0 0.0254
8:52 am 08:52 Sunny 25 -3.9 9 -12.8 50 50 NNW 14 22 30.08 1019 10 16.0934 0 0
9:52 am 09:52 Mostly Sunny 26 -3.3 11 -11.7 53 53 NNW 16 26 30.11 1020 10 16.0934 0 0
10:52 am 10:52 Mostly Sunny 28 -2.2 13 -10.6 53 53 NNW 15 24 30.12 1020 10 16.0934 0 0
11:52 am 11:52 Mostly Sunny 30 -1.1 13 -10.6 49 49 N 12 19 30.11 1020 10 16.0934 0 0
12:52 pm 12:52 Mostly Sunny 32 0 12 -11.1 43 43 NW 15 24 30.1 1019 10 16.0934 0 0
1:52 pm 13:52 Mostly Sunny 33 0.6 12 -11.1 42 42 NW 13 20 30.1 1019 10 16.0934 0 0
2:52 pm 14:52 Partly Cloudy 34 1.1 13 -10.6 42 42 NNW 10 17 30.09 1019 10 16.0934 0 0
3:52 pm 15:52 Mostly Sunny 34 1.1 14 -10 44 44 NNW 8 13 30.11 1020 10 16.0934 0 0
4:52 pm 16:52 Mostly Sunny 33 0.6 13 -10.6 43 43 NNW 3 6 30.11 1020 10 16.0934 0 0
5:52 pm 17:52 Mostly Clear 33 0.6 13 -10.6 43 43 Calm 30.13 1020 10 16.0934 0 0
6:52 pm 18:52 Mostly Clear 27 -2.8 21 -6.1 78 78 SSW 3 6 30.14 1021 10 16.0934 0 0
7:52 pm 19:52 Mostly Clear 26 -3.3 17 -8.3 69 69 SSW 3 6 30.15 1021 10 16.0934 0 0
8:52 pm 20:52 Mostly Clear 25 -3.9 18 -7.8 75 75 Calm 30.16 1022 8 12.87472 0 0
9:52 pm 21:52 Partly Cloudy 23 -5 17 -8.3 78 78 SW 5 7 30.17 1022 7 11.26538 0 0
10:52 pm 22:52 Mostly Clear with Mist and Fog 22 -5.6 18 -7.8 85 85 SSW 3 6 30.19 1022 6 9.65604 0 0
11:52 pm 23:52 Hazy 23 -5 17 -8.3 78 78 SSW 6 9 30.19 1022 7 11.26538 0 0

Powered by AerisWeather